Wind_Speed
14 11 9 7 7 6 5 4 4 4 5 6 6 7 7 7 7 6 6 6 6 5 6 6 5 3 2 0 0 0 2 3
15 12 10 8 6 5 4 4 3 3 2 3 4 4 4 5 6 6 6 6 6 5 6 6 5 5 4 4 4 4 5 6
15 13 11 9 8 7 6 6 6 5 5 3 2 2 2 2 2 3 3 4 5 6 7 8 8 7 8 8 8 9 9 10
13 12 12 11 10 10 9 8 7 7 6 5 5 4 4 4 4 4 5 6 7 8 8 9 10 11 12 12 13 13 13 13
14 13 12 12 12 11 10 9 8 8 7 7 7 7 7 7 8 8 9 9 10 11 12 13 14 15 16 16 16 16 16 16
10 10 11 11 10 10 10 10 9 10 9 9 10 10 10 11 11 12 13 14 15 16 17 18 19 20 20 21 21 21 21 21
9 9 10 10 10 10 10 10 11 12 12 12 12 13 13 14 14 15 16 17 19 20 21 22 23 24 25 26 27 28 28 29
10 9 11 10 9 10 10 11 12 13 14 13 13 13 14 15 16 16 18 19 20 21 23 25 26 27 27 28 28 29 31 31
14 14 14 13 13 12 14 11 10 12 11 9 10 9 9 12 14 13 15 17 19 21 23 26 26 27 28 28 29 31 32 31
15 15 16 18 16 17 11 13 13 10 8 10 11 8 10 10 12 15 17 19 22 26 25 27 27 28 28 28 28 29 30 29
14 15 17 18 17 16 16 16 14 14 11 15 13 11 14 16 18 22 26 28 29 27 27 26 28 29 32 30 34 34 33 33
15 17 19 22 21 26 23 24 23 19 17 22 17 19 21 23 25 30 30 29 28 28 29 31 34 34 34 36 36 38 37 37
18 19 22 21 27 27 23 21 25 26 17 16 17 19 24 27 28 23 19 19 20 21 23 24 27 27 28 28 27 28 30 28
20 19 18 20 18 19 24 22 17 17 18 19 22 26 26 24 20 18 16 16 16 16 16 18 20 20 21 22 20 19 20 19
18 16 15 15 16 16 19 19 19 20 21 24 26 19 17 17 14 12 12 13 14 15 17 18 20 21 21 22 22 20 18 18
17 16 15 15 14 15 16 17 17 16 15 15 15 13 11 10 9 10 10 11 12 13 14 15 17 18 19 20 21 25 28 29
17 15 14 13 13 13 13 12 13 13 13 11 9 9 8 8 8 8 10 11 13 14 15 16 16 17 19 22 24 27 32 35
17 15 14 13 13 13 14 14 12 10 9 9 8 7 7 6 7 9 11 13 13 14 15 17 18 20 22 24 26 28 32 36
17 16 16 16 15 15 13 11 10 10 10 8 6 5 6 7 9 10 11 12 13 15 16 18 20 21 23 26 28 31 33 36
20 19 19 18 15 14 13 12 11 10 8 6 6 6 7 8 9 10 11 13 14 16 17 19 21 23 25 28 30 33 35 38
Wind_Direction
149 150 143 132 121 115 109 101 90 78 75 70 79 86 87 95 108 122 139 138 139 144 140 151 154 160 138 118 55 165 217 234
156 158 156 152 148 147 146 148 148 152 142 127 116 116 122 127 132 135 139 149 161 161 165 184 191 202 215 234 253 264 254 247
165 167 166 168 173 184 190 196 199 197 197 194 189 169 165 170 160 160 171 185 194 197 202 210 221 235 245 251 255 254 256 256
170 175 178 183 191 199 206 217 223 227 226 228 232 231 232 233 236 239 239 235 233 239 247 254 257 257 259 259 262 266 267 265
180 184 189 199 207 212 221 230 242 250 255 256 254 254 256 258 261 262 264 265 267 270 272 271 271 271 273 276 278 278 276 272
196 199 205 218 229 235 239 244 252 256 261 264 266 267 267 266 265 266 268 270 272 275 278 281 282 284 286 286 286 285 283 281
212 218 230 241 254 262 268 269 269 270 268 269 271 272 275 277 279 280 280 280 281 281 280 280 281 283 285 287 288 289 290 291
225 233 242 246 261 271 273 274 276 272 274 276 279 281 281 282 282 284 285 285 287 287 287 287 287 287 286 286 288 289 290 292
246 253 261 254 256 265 272 269 292 273 261 262 270 269 278 274 275 282 286 288 291 293 290 287 287 287 288 291 292 292 291 292
246 251 258 261 264 275 256 270 286 280 277 299 302 288 295 297 295 294 298 295 296 301 295 285 286 284 283 287 292 295 292 290
244 252 260 265 271 264 264 281 271 263 280 277 271 283 295 300 299 300 300 298 295 293 290 289 289 293 288 290 288 296 293 292
252 253 252 250 255 259 260 262 266 252 280 275 262 283 290 296 293 298 295 294 289 289 286 289 288 292 290 289 290 292 291 289
266 262 250 247 253 247 247 258 260 265 271 261 269 285 291 297 299 297 297 299 299 297 293 295 295 296 296 298 300 301 298 301
270 262 250 247 246 248 251 245 257 257 269 278 287 293 294 294 292 295 299 302 303 305 307 308 309 311 309 308 307 306 305 305
264 254 245 244 248 240 249 255 259 269 274 277 281 282 283 285 293 302 310 313 314 314 312 311 311 312 313 315 317 315 308 307
256 249 243 243 245 245 248 252 258 262 263 264 269 272 275 280 287 295 299 302 304 308 314 316 317 319 320 319 317 313 310 305
250 242 236 233 231 232 237 244 249 253 256 256 258 263 270 276 285 293 303 311 316 319 319 318 318 319 319 318 318 319 318 318
238 235 233 234 236 240 241 240 237 237 241 248 248 252 266 285 299 309 313 314 317 319 321 323 324 324 323 323 322 321 318 316
231 231 235 240 242 239 233 230 230 230 233 237 249 269 286 298 305 306 310 315 321 323 326 327 327 327 325 324 323 322 321 318
228 232 237 238 232 227 225 226 227 230 236 248 260 271 281 289 294 302 312 318 320 325 328 331 331 328 327 326 325 323 322 322
Height
3181 3182 3183 3184 3184 3185 3185 3186 3187 3187 3187 3187 3187 3187 3187 3188 3188 3189 3190 3190 3191 3192 3192 3193 3193 3193 3193 3194 3194 3194 3194 3194
3181 3182 3183 3184 3184 3185 3186 3186 3186 3186 3187 3187 3187 3188 3188 3188 3188 3189 3189 3189 3190 3191 3191 3193 3193 3193 3193 3193 3193 3193 3194 3194
3181 3182 3183 3184 3185 3185 3186 3186 3186 3187 3187 3187 3188 3188 3189 3189 3189 3190 3190 3190 3191 3190 3191 3191 3191 3192 3192 3192 3192 3192 3192 3192
3182 3183 3184 3184 3184 3185 3185 3185 3186 3187 3187 3188 3189 3189 3189 3189 3190 3190 3190 3190 3190 3191 3191 3190 3190 3190 3190 3190 3190 3190 3190 3189
3181 3182 3183 3184 3184 3185 3185 3186 3186 3187 3188 3188 3189 3189 3190 3190 3190 3190 3190 3190 3190 3190 3190 3190 3189 3189 3189 3189 3188 3188 3188 3187
3180 3181 3182 3183 3184 3185 3185 3186 3187 3187 3187 3188 3188 3188 3188 3188 3189 3189 3189 3189 3189 3189 3188 3188 3188 3188 3187 3186 3185 3185 3184 3183
3180 3180 3181 3182 3183 3184 3185 3185 3186 3186 3186 3187 3187 3187 3187 3187 3187 3188 3187 3187 3187 3187 3186 3185 3185 3184 3183 3183 3182 3181 3180 3180
3179 3179 3180 3180 3182 3183 3183 3184 3184 3184 3184 3185 3185 3185 3186 3186 3185 3185 3185 3185 3185 3184 3183 3182 3182 3180 3180 3178 3178 3177 3175 3174
3177 3178 3179 3180 3180 3181 3181 3181 3181 3181 3182 3182 3182 3183 3183 3183 3183 3183 3183 3182 3181 3180 3179 3177 3177 3176 3174 3173 3172 3171 3170 3169
3175 3176 3176 3178 3178 3179 3179 3179 3179 3179 3179 3179 3180 3180 3180 3180 3180 3179 3179 3178 3177 3176 3174 3173 3171 3170 3169 3168 3167 3166 3165 3164
3172 3173 3173 3174 3175 3176 3175 3177 3177 3176 3177 3177 3177 3176 3177 3176 3175 3175 3174 3172 3170 3169 3168 3167 3165 3164 3163 3162 3161 3160 3159 3157
3169 3170 3170 3171 3172 3171 3172 3173 3174 3172 3173 3174 3174 3173 3173 3172 3171 3170 3167 3166 3164 3163 3162 3160 3158 3157 3156 3155 3154 3153 3151 3150
3164 3165 3165 3166 3167 3167 3168 3168 3169 3170 3170 3170 3170 3170 3169 3167 3165 3163 3161 3160 3159 3158 3156 3154 3152 3151 3149 3148 3146 3145 3143 3142
3159 3159 3160 3160 3161 3162 3163 3164 3165 3166 3165 3165 3165 3164 3163 3162 3161 3159 3158 3156 3155 3154 3152 3150 3148 3146 3144 3142 3142 3142 3138 3136
3154 3154 3155 3156 3157 3157 3158 3160 3161 3161 3161 3161 3161 3160 3160 3159 3157 3156 3154 3154 3152 3150 3148 3146 3144 3142 3140 3137 3135 3134 3133 3132
3148 3149 3150 3152 3152 3153 3155 3156 3156 3157 3157 3158 3158 3157 3157 3156 3154 3153 3152 3151 3149 3148 3145 3143 3140 3138 3135 3133 3131 3128 3125 3125
3144 3145 3146 3147 3149 3150 3151 3152 3153 3154 3154 3154 3155 3154 3154 3153 3152 3151 3149 3147 3146 3144 3142 3140 3138 3135 3132 3129 3126 3122 3118 3113
3139 3140 3142 3144 3145 3147 3148 3149 3150 3150 3151 3151 3151 3151 3151 3149 3148 3147 3146 3144 3142 3140 3138 3135 3132 3130 3127 3124 3121 3118 3114 3108
3135 3136 3138 3140 3141 3143 3144 3145 3146 3147 3148 3148 3148 3147 3147 3146 3145 3145 3143 3141 3138 3136 3134 3131 3128 3125 3123 3119 3116 3112 3107 3102
3131 3132 3134 3136 3137 3139 3140 3142 3143 3143 3144 3144 3144 3145 3145 3144 3143 3142 3140 3137 3136 3133 3130 3128 3125 3122 3118 3114 3110 3106 3101 3095